CES0319 ZBAA-ZSSS

Flight info

Callsign CES0319
Flight time N/A
Altitude 33100
Route K0843S1190 ELKUR2G ELKUR W40 YQG/K0848S1220 W142 DALIM/K0843S1190 A593 DPX A470 DALNU W166 ZJ W167 SASAN R343 PK DCT
Aircraft A339/H-SADE1E2E3GHIJ3J5M1P2RWXY/LB2D1

Departure

Time 2026-05-01 13:58
Airport Beijing Capital International Airport (ZBAA)

Arrival

Time N/A
Airport Shanghai Hongqiao International Airport (ZSSS)
Time Latitude Longitude Altitude Speed Heading
2026-05-01 13:35 40.07571 116.60403 133 ft 0 kts 54°
2026-05-01 13:46 40.07563 116.60390 133 ft 2 kts 54°
2026-05-01 13:46 40.07554 116.60374 133 ft 2 kts 54°
2026-05-01 13:46 40.07548 116.60363 133 ft 0 kts 54°
2026-05-01 13:46 40.07539 116.60349 133 ft 2 kts 44°
2026-05-01 13:47 40.07528 116.60336 133 ft 2 kts 30°
2026-05-01 13:47 40.07514 116.60328 133 ft 2 kts 19°
2026-05-01 13:47 40.07500 116.60323 133 ft 2 kts
2026-05-01 13:47 40.07485 116.60323 133 ft 2 kts 354°
2026-05-01 13:48 40.07470 116.60326 133 ft 2 kts 342°
2026-05-01 13:48 40.07462 116.60330 133 ft 1 kts 335°
2026-05-01 13:48 40.07459 116.60332 133 ft 0 kts 335°
2026-05-01 13:50 40.07461 116.60330 133 ft 1 kts 335°
2026-05-01 13:50 40.07475 116.60322 133 ft 3 kts 335°
2026-05-01 13:50 40.07503 116.60305 133 ft 5 kts 335°
2026-05-01 13:51 40.07539 116.60274 133 ft 7 kts 316°
2026-05-01 13:51 40.07578 116.60222 133 ft 8 kts 315°
2026-05-01 13:51 40.07614 116.60153 133 ft 9 kts 293°
2026-05-01 13:51 40.07629 116.60063 133 ft 10 kts 270°
2026-05-01 13:52 40.07618 116.59965 133 ft 10 kts 240°
2026-05-01 13:52 40.07548 116.59937 133 ft 11 kts 173°
2026-05-01 13:52 40.07464 116.59950 133 ft 12 kts 173°
2026-05-01 13:52 40.07373 116.59965 133 ft 13 kts 173°
2026-05-01 13:53 40.07278 116.59981 133 ft 14 kts 173°
2026-05-01 13:53 40.07077 116.60012 133 ft 15 kts 173°
2026-05-01 13:53 40.06972 116.60028 133 ft 15 kts 173°
2026-05-01 13:54 40.06865 116.60046 133 ft 15 kts 173°
2026-05-01 13:54 40.06755 116.60062 133 ft 16 kts 174°
2026-05-01 13:54 40.06643 116.60078 133 ft 16 kts 173°
2026-05-01 13:54 40.06531 116.60097 133 ft 16 kts 173°
2026-05-01 13:55 40.06432 116.60113 133 ft 16 kts 173°
2026-05-01 13:55 40.06318 116.60133 133 ft 16 kts 173°
2026-05-01 13:55 40.06202 116.60147 133 ft 16 kts 175°
2026-05-01 13:55 40.06086 116.60165 133 ft 16 kts 173°
2026-05-01 13:56 40.05969 116.60184 133 ft 16 kts 173°
2026-05-01 13:56 40.05853 116.60203 133 ft 16 kts 174°
2026-05-01 13:56 40.05735 116.60220 133 ft 16 kts 173°
2026-05-01 13:56 40.05619 116.60239 133 ft 17 kts 173°
2026-05-01 13:57 40.05539 116.60196 133 ft 11 kts 260°
2026-05-01 13:57 40.05535 116.60129 133 ft 11 kts 271°
2026-05-01 13:57 40.05583 116.60010 133 ft 11 kts 344°
2026-05-01 13:57 40.05666 116.59996 133 ft 12 kts 353°
2026-05-01 13:58 40.05921 116.59958 133 ft 69 kts 353°
2026-05-01 13:58 40.06616 116.59848 133 ft 128 kts 352°
2026-05-01 13:58 40.07676 116.59683 159 ft 173 kts 353°
2026-05-01 13:58 40.08831 116.59485 833 ft 162 kts 354°
2026-05-01 13:59 40.09913 116.59293 1450 ft 157 kts 356°
2026-05-01 13:59 40.11021 116.59116 1834 ft 169 kts 358°
2026-05-01 13:59 40.12259 116.58949 2174 ft 186 kts 357°
2026-05-01 13:59 40.13601 116.58762 2550 ft 203 kts 356°
2026-05-01 14:00 40.15064 116.58543 2948 ft 221 kts 356°
2026-05-01 14:00 40.16640 116.58299 3360 ft 238 kts 355°
2026-05-01 14:00 40.18346 116.58032 3770 ft 256 kts 354°
2026-05-01 14:00 40.20192 116.57742 4199 ft 273 kts 354°
2026-05-01 14:01 40.22104 116.57439 4802 ft 282 kts 353°
2026-05-01 14:01 40.24063 116.57077 5514 ft 285 kts 344°
2026-05-01 14:01 40.25857 116.56068 6206 ft 285 kts 323°
2026-05-01 14:01 40.27381 116.54438 6952 ft 284 kts 315°
2026-05-01 14:02 40.28837 116.52689 7649 ft 287 kts 314°
2026-05-01 14:02 40.30309 116.50905 8373 ft 288 kts 313°
2026-05-01 14:02 40.31432 116.48800 9042 ft 283 kts 287°
2026-05-01 14:02 40.31739 116.46314 9717 ft 280 kts 268°
2026-05-01 14:03 40.31710 116.43758 10373 ft 284 kts 268°
2026-05-01 14:03 40.31682 116.41128 10750 ft 301 kts 268°
2026-05-01 14:03 40.31664 116.38302 11136 ft 320 kts 268°
2026-05-01 14:03 40.31656 116.35307 11519 ft 339 kts 269°
2026-05-01 14:04 40.31652 116.32153 11878 ft 357 kts 269°
2026-05-01 14:04 40.31649 116.28790 12286 ft 374 kts 268°
2026-05-01 14:04 40.31244 116.25462 12930 ft 381 kts 249°
2026-05-01 14:04 40.30439 116.23387 13481 ft 383 kts 236°
2026-05-01 14:05 40.27873 116.20203 14520 ft 389 kts 211°
2026-05-01 14:05 40.25479 116.18604 15373 ft 392 kts 208°
2026-05-01 14:05 40.23037 116.16962 16188 ft 396 kts 208°
2026-05-01 14:05 40.20613 116.15308 16965 ft 400 kts 209°
2026-05-01 14:06 40.18134 116.13612 17759 ft 404 kts 209°
2026-05-01 14:06 40.15641 116.11906 18523 ft 407 kts 209°
2026-05-01 14:06 40.13123 116.10187 19200 ft 412 kts 210°
2026-05-01 14:06 40.10574 116.08451 19873 ft 416 kts 210°
2026-05-01 14:07 40.08004 116.06699 20511 ft 420 kts 211°
2026-05-01 14:07 40.05383 116.04964 21112 ft 426 kts 206°
2026-05-01 14:07 40.02499 116.04005 21630 ft 440 kts 188°
2026-05-01 14:08 39.96497 116.05541 22719 ft 461 kts 162°
2026-05-01 14:08 39.93533 116.07044 23223 ft 466 kts 162°
2026-05-01 14:08 39.90474 116.08566 23734 ft 471 kts 163°
2026-05-01 14:08 39.87398 116.10069 24273 ft 474 kts 163°
2026-05-01 14:09 39.84312 116.11628 24787 ft 479 kts 162°
2026-05-01 14:09 39.81231 116.13436 25262 ft 486 kts 159°
2026-05-01 14:09 39.78252 116.15469 25722 ft 493 kts 155°
2026-05-01 14:09 39.75261 116.17770 26194 ft 498 kts 154°
2026-05-01 14:10 39.72292 116.20093 26642 ft 502 kts 154°
2026-05-01 14:10 39.69314 116.22425 27071 ft 506 kts 154°
2026-05-01 14:10 39.66276 116.24801 27576 ft 508 kts 154°
2026-05-01 14:10 39.63301 116.27125 28158 ft 507 kts 155°
2026-05-01 14:11 39.60283 116.29478 28784 ft 505 kts 155°
2026-05-01 14:11 39.54279 116.34131 29872 ft 505 kts 156°
2026-05-01 14:11 39.51165 116.36353 30092 ft 509 kts 160°
2026-05-01 14:12 39.47972 116.38305 30266 ft 512 kts 163°
2026-05-01 14:12 39.44634 116.40018 30436 ft 515 kts 168°
2026-05-01 14:12 39.41248 116.41440 30633 ft 517 kts 171°
2026-05-01 14:12 39.37758 116.42622 30989 ft 516 kts 173°
2026-05-01 14:13 39.34283 116.43752 31464 ft 514 kts 173°
2026-05-01 14:13 39.31983 116.44498 31755 ft 512 kts 173°
2026-05-01 14:13 39.27422 116.45984 32235 ft 510 kts 174°
2026-05-01 14:13 39.23948 116.47112 32538 ft 510 kts 174°
2026-05-01 14:14 39.20532 116.48222 32771 ft 511 kts 174°
2026-05-01 14:14 39.17079 116.49342 32951 ft 511 kts 173°
2026-05-01 14:14 39.10189 116.51579 32958 ft 511 kts 173°
2026-05-01 14:15 39.03294 116.53816 32953 ft 512 kts 174°
2026-05-01 14:15 38.96411 116.56045 32954 ft 511 kts 173°
2026-05-01 14:16 38.89527 116.58270 32956 ft 509 kts 173°
2026-05-01 14:16 38.82684 116.60479 32958 ft 509 kts 173°
2026-05-01 14:17 38.75816 116.62690 32958 ft 510 kts 173°
2026-05-01 14:17 38.68927 116.64526 32960 ft 503 kts 179°
2026-05-01 14:18 38.61996 116.65433 32955 ft 494 kts 185°
2026-05-01 14:18 38.56336 116.65487 32960 ft 489 kts 190°
2026-05-01 14:19 38.48484 116.64702 32961 ft 484 kts 193°
2026-05-01 14:19 38.41739 116.63939 32960 ft 484 kts 193°
2026-05-01 14:20 38.31544 116.63666 32965 ft 496 kts 185°
2026-05-01 14:21 38.24659 116.64668 32965 ft 503 kts 178°
2026-05-01 14:21 38.17772 116.66669 32964 ft 511 kts 171°
2026-05-01 14:22 38.07556 116.70508 32965 ft 512 kts 171°
2026-05-01 14:22 38.00769 116.73099 32964 ft 510 kts 171°
2026-05-01 14:23 37.93977 116.75687 32961 ft 510 kts 171°
2026-05-01 14:23 37.87169 116.78276 32960 ft 511 kts 171°
2026-05-01 14:24 37.80356 116.80859 32964 ft 510 kts 171°
2026-05-01 14:24 37.73558 116.83431 32968 ft 510 kts 171°
2026-05-01 14:25 37.66776 116.85992 32964 ft 508 kts 171°
2026-05-01 14:25 37.60029 116.88535 32970 ft 507 kts 171°
2026-05-01 14:26 37.49864 116.92353 32967 ft 509 kts 171°
2026-05-01 14:27 37.43095 116.94900 32973 ft 508 kts 171°
2026-05-01 14:27 37.36337 116.97433 32975 ft 507 kts 171°
2026-05-01 14:28 37.26285 117.01495 32975 ft 513 kts 166°
2026-05-01 14:28 37.19610 117.04633 32983 ft 511 kts 166°
2026-05-01 14:29 37.12978 117.07733 32980 ft 510 kts 167°
2026-05-01 14:30 36.99645 117.13948 33005 ft 512 kts 167°
2026-05-01 14:31 36.89603 117.18366 33010 ft 505 kts 172°
2026-05-01 14:31 36.82826 117.20310 33010 ft 497 kts 178°
2026-05-01 14:32 36.76012 117.21326 33013 ft 491 kts 184°
2026-05-01 14:32 36.69197 117.21478 33018 ft 488 kts 188°
2026-05-01 14:33 36.62417 117.21431 33031 ft 490 kts 188°
2026-05-01 14:33 36.55568 117.21393 33049 ft 490 kts 187°
2026-05-01 14:34 36.48803 117.21438 33063 ft 491 kts 185°
2026-05-01 14:34 36.41954 117.22192 33047 ft 499 kts 179°
2026-05-01 14:35 36.35101 117.23838 33045 ft 507 kts 173°
2026-05-01 14:35 36.28269 117.26285 33048 ft 510 kts 170°
2026-05-01 14:36 36.21504 117.28814 33036 ft 508 kts 170°
2026-05-01 14:36 36.14698 117.31345 33040 ft 511 kts 170°
2026-05-01 14:37 36.07904 117.33862 33044 ft 511 kts 170°
2026-05-01 14:37 36.01492 117.36231 33043 ft 511 kts 170°
2026-05-01 14:38 35.94662 117.38766 33042 ft 513 kts 169°
2026-05-01 14:38 35.87824 117.41328 33046 ft 512 kts 170°
2026-05-01 14:39 35.80993 117.43879 33044 ft 514 kts 170°
2026-05-01 14:39 35.74133 117.46435 33045 ft 515 kts 170°
2026-05-01 14:40 35.67292 117.48985 33043 ft 514 kts 170°
2026-05-01 14:40 35.60440 117.51532 33040 ft 514 kts 170°
2026-05-01 14:41 35.53593 117.54069 33038 ft 516 kts 169°
2026-05-01 14:41 35.46711 117.56619 33042 ft 517 kts 169°
2026-05-01 14:42 35.39845 117.59160 33038 ft 516 kts 169°
2026-05-01 14:42 35.32984 117.61692 33042 ft 516 kts 169°
2026-05-01 14:43 35.26063 117.64242 33043 ft 517 kts 169°
2026-05-01 14:43 35.19162 117.66785 33046 ft 518 kts 170°
2026-05-01 14:44 35.12268 117.69319 33056 ft 521 kts 170°
2026-05-01 14:44 35.01847 117.73139 33051 ft 520 kts 170°
2026-05-01 14:45 34.91487 117.76929 33050 ft 520 kts 169°
2026-05-01 14:46 34.84523 117.79479 33050 ft 520 kts 170°
2026-05-01 14:46 34.74145 117.83236 33048 ft 521 kts 169°
2026-05-01 14:47 34.67203 117.85729 33048 ft 518 kts 169°
2026-05-01 14:48 34.56821 117.89450 33049 ft 519 kts 169°
2026-05-01 14:48 34.46457 117.93162 33047 ft 519 kts 169°